Bullhead City, AZ

1:28 AM MST on April 29, 2017 (GMT -0700)
Laughlin-Bullhead International

Weather History for KIFP - March, 2012

Change the Weather History Date:

Saturday, March 31, 2012

  Actual Average Record
Temperature  
Mean Temperature 76 °F -  
Max Temperature 89 °F 75 °F 95 °F (2015)
Min Temperature 64 °F 56 °F 37 °F (1991)
Cooling Degree Days 12    
Growing Degree Days 26 (Base 50)    
Moisture  
Dew Point 32 °F    
Average Humidity 21    
Maximum Humidity 34    
Minimum Humidity 10    
Precipitation  
Precipitation 0.00 in - - ()
Sea Level Pressure  
Sea Level Pressure 29.79 in    
Wind  
Wind Speed 8 mph (South)    
Max Wind Speed 31 mph    
Max Gust Speed 40 mph    
Visibility 10 miles    
Events      
Averages and records for this station are not official NWS values.
T = Trace of Precipitation, MM = Missing Value Source: NWS Daily Summary

Daily Weather History Graph

Daily Weather History Graph

Search for Another Location

Airport or City:

Trip Planner

Search our weather history database for the weather conditions in past years. The results will help you decide how hot, cold, wet, or windy it might be!

Date:

Astronomy

Mar. 31, 2012 Rise Set
Actual Time 6:25 AM MST 6:59 PM MST
Civil Twilight 6:00 AM MST 7:24 PM MST
Nautical Twilight 5:30 AM MST 7:54 PM MST
Astronomical Twilight 4:59 AM MST 8:25 PM MST
Moon 12:45 PM MST (3/31) 2:11 AM MST (3/31)
Length of Visible Light 13h 24m
Length of Day
12h 33m
First Quarter, 60% of the Moon is Illuminated
Mar 31
First Quarter
Apr 6
Full
Apr 13
Last Quarter
Apr 21
New
Apr 29
First Quarter

Hourly Weather History & Observations

Time (MST) Temp. Dew Point Humidity Pressure Visibility Wind Dir Wind Speed Gust Speed Precip Events Conditions
12:15 AM 71.6 °F 32.0 °F 23% 29.85 in 10.0 mi Calm Calm - N/A   Clear
12:35 AM 73.4 °F 32.0 °F 22% 29.85 in 10.0 mi Calm Calm - N/A   Clear
12:55 AM 68.0 °F 32.0 °F 26% 29.86 in 10.0 mi Calm Calm - N/A   Clear
1:15 AM 68.0 °F 32.0 °F 26% 29.85 in 10.0 mi Calm Calm - N/A   Clear
1:35 AM 68.0 °F 32.0 °F 26% 29.85 in 10.0 mi ESE 4.6 mph - N/A   Clear
1:55 AM 68.0 °F 32.0 °F 26% 29.85 in 10.0 mi Calm Calm - N/A   Clear
2:15 AM 66.2 °F 32.0 °F 28% 29.85 in 10.0 mi SE 3.5 mph - N/A   Clear
2:35 AM 66.2 °F 32.0 °F 28% 29.85 in 10.0 mi Calm Calm - N/A   Clear
2:55 AM 66.2 °F 32.0 °F 28% 29.84 in 10.0 mi Calm Calm - N/A   Clear
3:15 AM 68.0 °F 32.0 °F 26% 29.84 in 10.0 mi Calm Calm - N/A   Clear
3:35 AM 68.0 °F 32.0 °F 26% 29.84 in 10.0 mi Calm Calm - N/A   Clear
3:55 AM 68.0 °F 32.0 °F 26% 29.84 in 10.0 mi SSW 5.8 mph - N/A   Clear
4:15 AM 64.4 °F 32.0 °F 30% 29.84 in 10.0 mi Calm Calm - N/A   Clear
4:35 AM 66.2 °F 32.0 °F 28% 29.84 in 10.0 mi SSE 5.8 mph - N/A   Clear
4:55 AM 64.4 °F 33.8 °F 32% 29.84 in 10.0 mi ESE 8.1 mph - N/A   Clear
5:15 AM 66.2 °F 33.8 °F 30% 29.84 in 10.0 mi SSE 6.9 mph - N/A   Clear
5:35 AM 66.2 °F 33.8 °F 30% 29.84 in 10.0 mi SSE 4.6 mph - N/A   Clear
5:55 AM 64.4 °F 33.8 °F 32% 29.85 in 10.0 mi SE 9.2 mph - N/A   Clear
6:15 AM 64.4 °F 33.8 °F 32% 29.86 in 10.0 mi SE 10.4 mph - N/A   Clear
6:35 AM 64.4 °F 35.6 °F 34% 29.86 in 10.0 mi SE 8.1 mph - N/A   Clear
6:55 AM 64.4 °F 35.6 °F 34% 29.87 in 10.0 mi SE 8.1 mph - N/A   Clear
7:15 AM 64.4 °F 35.6 °F 34% 29.87 in 10.0 mi SE 5.8 mph - N/A   Clear
7:35 AM 68.0 °F 35.6 °F 30% 29.88 in 10.0 mi South 5.8 mph - N/A   Clear
7:55 AM 68.0 °F 35.6 °F 30% 29.88 in 10.0 mi Calm Calm - N/A   Clear
8:15 AM 68.0 °F 37.4 °F 33% 29.88 in 10.0 mi SW 3.5 mph - N/A   Clear
8:35 AM 68.0 °F 35.6 °F 30% 29.88 in 10.0 mi Calm Calm - N/A   Clear
8:55 AM 69.8 °F 37.4 °F 31% 29.89 in 10.0 mi Calm Calm - N/A   Clear
9:15 AM 71.6 °F 37.4 °F 29% 29.89 in 10.0 mi SSW 3.5 mph - N/A   Clear
9:35 AM 75.2 °F 37.4 °F 25% 29.88 in 10.0 mi SW 8.1 mph - N/A   Clear
9:55 AM 77.0 °F 35.6 °F 22% 29.88 in 10.0 mi South 10.4 mph - N/A   Clear
10:15 AM 78.8 °F 33.8 °F 20% 29.86 in 10.0 mi South 11.5 mph 18.4 mph N/A   Clear
10:35 AM 80.6 °F 35.6 °F 20% 29.85 in 10.0 mi SSW 10.4 mph - N/A   Clear
10:55 AM 82.4 °F 32.0 °F 16% 29.84 in 10.0 mi SSW 18.4 mph 27.6 mph N/A   Clear
11:15 AM 84.2 °F 32.0 °F 15% 29.82 in 10.0 mi SSW 20.7 mph 26.5 mph N/A   Clear
11:35 AM 84.2 °F 32.0 °F 15% 29.80 in 10.0 mi South 24.2 mph 29.9 mph N/A   Clear
11:55 AM 84.2 °F 32.0 °F 15% 29.80 in 10.0 mi South 18.4 mph 32.2 mph N/A   Clear
12:15 PM 86.0 °F 32.0 °F 14% 29.78 in 10.0 mi South 27.6 mph 31.1 mph N/A   Clear
12:35 PM 86.0 °F 32.0 °F 14% 29.78 in 10.0 mi South 25.3 mph 34.5 mph N/A   Clear
12:55 PM 86.0 °F 32.0 °F 14% 29.77 in 10.0 mi SSW 25.3 mph 32.2 mph N/A   Clear
1:15 PM 87.8 °F 32.0 °F 14% 29.77 in 10.0 mi SSW 25.3 mph 34.5 mph N/A   Clear
1:55 PM 87.8 °F 28.4 °F 12% 29.73 in 10.0 mi South 31.1 mph 36.8 mph N/A   Clear
2:15 PM 87.8 °F 30.2 °F 13% 29.73 in 10.0 mi South 25.3 mph 35.7 mph N/A   Clear
2:35 PM 89.6 °F 30.2 °F 12% 29.71 in 10.0 mi South 25.3 mph 35.7 mph N/A   Clear
2:55 PM 89.6 °F 30.2 °F 12% 29.70 in 10.0 mi SSE 27.6 mph 31.1 mph N/A   Clear
3:15 PM 89.6 °F 30.2 °F 12% 29.70 in 10.0 mi SSE 28.8 mph 39.1 mph N/A   Clear
3:35 PM 89.6 °F 28.4 °F 11% 29.70 in 10.0 mi South 21.9 mph 36.8 mph N/A   Clear
3:55 PM 89.6 °F 28.4 °F 11% 29.69 in 10.0 mi South 25.3 mph 29.9 mph N/A   Clear
4:15 PM 89.6 °F 28.4 °F 11% 29.68 in 10.0 mi SSE 31.1 mph 36.8 mph N/A   Clear
4:35 PM 89.6 °F 28.4 °F 11% 29.66 in 10.0 mi South 31.1 mph 40.3 mph N/A   Clear
4:55 PM 89.6 °F 26.6 °F 10% 29.66 in 10.0 mi SSE 24.2 mph 33.4 mph N/A   Clear
5:15 PM 89.6 °F 26.6 °F 10% 29.66 in 10.0 mi SSE 24.2 mph 28.8 mph N/A   Clear
5:35 PM 89.6 °F 24.8 °F 10% 29.65 in 10.0 mi SSE 28.8 mph 38.0 mph N/A   Clear
5:55 PM 89.6 °F 24.8 °F 10% 29.65 in 10.0 mi South 26.5 mph 35.7 mph N/A   Clear
6:15 PM 87.8 °F 24.8 °F 10% 29.66 in 10.0 mi SSW 24.2 mph 31.1 mph N/A   Clear
6:35 PM 86.0 °F 23.0 °F 10% 29.66 in 10.0 mi South 20.7 mph 26.5 mph N/A   Clear
6:55 PM 84.2 °F 24.8 °F 11% 29.67 in 10.0 mi South 20.7 mph 28.8 mph N/A   Clear
7:15 PM 84.2 °F 24.8 °F 11% 29.66 in 10.0 mi SSW 19.6 mph 25.3 mph N/A   Clear
7:35 PM 82.4 °F 23.0 °F 11% 29.67 in 10.0 mi SSW 19.6 mph 32.2 mph N/A   Clear
8:15 PM 80.6 °F 26.6 °F 14% 29.68 in 10.0 mi South 13.8 mph - N/A   Clear
8:35 PM 82.4 °F 26.6 °F 13% 29.68 in 10.0 mi South 19.6 mph - N/A   Clear
8:55 PM 80.6 °F 26.6 °F 14% 29.69 in 10.0 mi South 16.1 mph - N/A   Clear
9:15 PM 80.6 °F 26.6 °F 14% 29.70 in 10.0 mi South 16.1 mph 21.9 mph N/A   Clear
9:35 PM 78.8 °F 26.6 °F 15% 29.71 in 10.0 mi SSW 17.3 mph 21.9 mph N/A   Clear
9:55 PM 77.0 °F 23.0 °F 13% 29.71 in 10.0 mi South 12.7 mph 19.6 mph N/A   Clear
10:15 PM 75.2 °F 26.6 °F 17% 29.72 in 10.0 mi SW 8.1 mph - N/A   Clear
10:35 PM 73.4 °F 28.4 °F 19% 29.72 in 10.0 mi SSW 11.5 mph - N/A   Clear
10:55 PM 73.4 °F 28.4 °F 19% 29.73 in 10.0 mi South 10.4 mph - N/A   Clear
11:15 PM 71.6 °F 28.4 °F 20% 29.74 in 10.0 mi North 3.5 mph - N/A   Clear
11:35 PM 71.6 °F 28.4 °F 20% 29.74 in 10.0 mi Calm Calm - N/A   Clear
11:55 PM 68.0 °F 32.0 °F 26% 29.74 in 10.0 mi SW 4.6 mph - N/A   Clear